User: anonymous   Login
Location: Bremen
(53.0830°N, 8.8000°E)
Time: 18:29:50
(UTC+01:00)
Language:

Envisat - Orbit

View from above orbital plane
View from above orbital plane
View from above satellite
View from above satellite

Ground track
Ground track

The orbit data is extracted from the following two-line orbital elements,

1 27386U 02009A   22334.93748199  .00000131  00000-0  56695-4 0  9991
2 27386  98.2052 308.4120 0001314  85.3643 296.2907 14.38190758 87466
Epoch (UTC): 30 November 2022 22:29:58
Eccentricity: 0.0001314
inclination: 98.2052°
perigee height: 763 km
apogee height: 765 km
right ascension of ascending node: 308.4120°
argument of perigee: 85.3643°
revolutions per day: 14.38190758
mean anomaly at epoch: 296.2907°
orbit number at epoch: 8746

The dashed part of the orbit path shows where the satellite is in the earth's shadow,  

DLR